Date String (YYYY-MM-DD hh:mm:ss) UTC,Instrument flags,Ambient pressure (hPa),Sample flow (lpm),Bypass flow (lpm),Sample temperature (°C),Ambient temperature (°C),ASC tube jacket temperature (°C),LED temperature (°C),Box temperature (°C),Sample RH (%),Span deviation,Mass concentration (μg/m³),Mass concentration (μg/m³),Mass concentration (μg/m³)
DateTimeUTC,F1_M11,P_M11,Q1_M11,Q2_M11,T1_M11,T2_M11,T3_M11,T4_M11,T5_M11,U1_M11,ZSPAN_M11,X0_M11,X2_M11,X1_M11
2022-11-06 05:00:00,,0814.9,5.00,0.00,25.3,24.0,00.0,34.1,27.3,14.4,0000.0,0000.96,0000.61,0000.48
2022-11-06 05:01:00,,0814.9,5.01,0.00,25.3,24.0,00.0,34.1,27.3,14.5,0000.0,0000.97,0000.62,0000.48
2022-11-06 05:02:00,,0814.9,5.00,0.00,25.3,24.0,00.0,34.1,27.2,14.5,0000.0,0001.16,0000.64,0000.49
2022-11-06 05:03:00,,0815.1,4.99,0.00,25.3,24.0,00.0,34.1,27.3,14.5,0000.0,0002.38,0000.65,0000.49
2022-11-06 05:04:00,,0814.9,4.99,0.00,25.3,24.0,00.0,34.1,27.3,14.6,0000.0,0002.39,0000.65,0000.49
2022-11-06 05:05:00,,0815.1,4.99,0.00,25.3,24.1,00.0,34.1,27.3,14.5,0000.0,0002.30,0000.62,0000.49
2022-11-06 05:06:00,,0814.9,5.00,0.00,25.3,24.1,00.0,34.1,27.3,14.5,0000.0,0002.27,0000.62,0000.49
2022-11-06 05:07:00,,0814.9,5.01,0.00,25.4,24.1,00.0,34.1,27.3,14.5,0000.0,0002.23,0000.59,0000.47
2022-11-06 05:08:00,,0814.9,5.01,0.00,25.4,24.1,00.0,34.1,27.3,14.5,0000.0,0002.22,0000.59,0000.47
2022-11-06 05:09:00,,0814.9,5.00,0.00,25.4,24.1,00.0,34.1,27.3,14.6,0000.0,0002.16,0000.57,0000.45
2022-11-06 05:10:00,,0814.9,4.99,0.00,25.4,24.1,00.0,34.1,27.3,14.7,0000.0,0002.09,0000.54,0000.44
2022-11-06 05:11:00,,0814.9,5.00,0.00,25.4,24.1,00.0,34.1,27.3,14.8,0000.0,0002.11,0000.55,0000.44
2022-11-06 05:12:00,,0814.9,5.00,0.00,25.4,24.1,00.0,34.1,27.3,14.8,0000.0,0002.14,0000.54,0000.43
2022-11-06 05:13:00,,0814.9,5.00,0.00,25.4,24.1,00.0,34.1,27.3,14.9,0000.0,0002.14,0000.54,0000.43
2022-11-06 05:14:00,,0814.9,4.99,0.00,25.4,24.1,00.0,34.1,27.3,14.8,0000.0,0001.06,0000.52,0000.42
2022-11-06 05:15:00,,0814.9,5.00,0.00,25.4,24.0,00.0,34.1,27.3,14.8,0000.0,0000.83,0000.53,0000.41
2022-11-06 05:16:00,,0814.8,5.00,0.00,25.4,24.0,00.0,34.1,27.2,14.8,0000.0,0000.88,0000.55,0000.41
2022-11-06 05:17:00,,0814.8,5.00,0.00,25.4,24.0,00.0,34.1,27.3,14.7,0000.0,0000.93,0000.57,0000.40
2022-11-06 05:18:00,,0814.6,5.01,0.00,25.4,23.9,00.0,34.1,27.2,14.5,0000.0,0000.94,0000.57,0000.40
2022-11-06 05:19:00,,0814.6,5.00,0.00,25.3,23.9,00.0,34.1,27.2,14.4,0000.0,0000.93,0000.57,0000.40
2022-11-06 05:20:00,,0814.7,5.00,0.00,25.3,23.9,00.0,34.2,27.2,14.6,0000.0,0000.98,0000.59,0000.40
2022-11-06 05:21:00,,0814.9,5.00,0.00,25.3,23.8,00.0,34.1,27.2,14.8,0000.0,0001.02,0000.61,0000.40
2022-11-06 05:22:00,,0814.7,5.00,0.00,25.3,23.8,00.0,34.1,27.2,14.9,0000.0,0001.16,0000.62,0000.40
2022-11-06 05:23:00,,0815.1,4.99,0.00,25.3,23.8,00.0,34.2,27.2,14.9,0000.0,0001.31,0000.62,0000.40
2022-11-06 05:24:00,,0815.2,5.00,0.00,25.3,23.8,00.0,34.1,27.2,14.8,0000.0,0001.32,0000.62,0000.40
2022-11-06 05:25:00,,0815.1,5.00,0.00,25.3,23.7,00.0,34.1,27.1,14.8,0000.0,0001.35,0000.63,0000.40
2022-11-06 05:26:00,,0814.7,5.01,0.00,25.3,23.7,00.0,34.1,27.1,14.8,0000.0,0001.23,0000.59,0000.40
2022-11-06 05:27:00,,0814.7,5.01,0.00,25.3,23.7,00.0,34.1,27.1,14.8,0000.0,0001.18,0000.57,0000.39
2022-11-06 05:28:00,,0815.0,5.00,0.00,25.2,23.7,00.0,34.1,27.1,14.7,0000.0,0001.11,0000.54,0000.39
2022-11-06 05:29:00,,0814.9,4.99,0.00,25.2,23.7,00.0,34.1,27.0,14.7,0000.0,0001.09,0000.52,0000.38
2022-11-06 05:30:00,,0814.7,5.00,0.00,25.2,23.7,00.0,34.1,27.0,14.7,0000.0,0001.11,0000.53,0000.38
2022-11-06 05:31:00,,0815.0,5.00,0.00,25.2,23.6,00.0,34.1,27.1,14.6,0000.0,0001.11,0000.52,0000.38
2022-11-06 05:32:00,,0815.0,5.01,0.00,25.2,23.6,00.0,34.1,27.0,14.5,0000.0,0001.08,0000.50,0000.38
2022-11-06 05:33:00,,0815.0,5.00,0.00,25.2,23.6,00.0,34.1,27.0,14.3,0000.0,0000.90,0000.47,0000.37
2022-11-06 05:34:00,,0815.0,5.00,0.00,25.2,23.6,00.0,34.1,27.0,14.4,0000.0,0000.70,0000.47,0000.36
2022-11-06 05:35:00,,0814.9,5.00,0.00,25.2,23.5,00.0,34.1,27.0,14.6,0000.0,0000.71,0000.46,0000.35
2022-11-06 05:36:00,,0814.8,4.99,0.00,25.1,23.5,00.0,34.0,27.0,14.5,0000.0,0000.71,0000.45,0000.34
2022-11-06 05:37:00,,0814.9,5.00,0.00,25.1,23.4,00.0,34.0,26.9,14.4,0000.0,0000.74,0000.46,0000.34
2022-11-06 05:38:00,,0814.9,4.99,0.00,25.1,23.4,00.0,34.0,26.9,14.4,0000.0,0000.76,0000.47,0000.34
2022-11-06 05:39:00,,0814.9,5.00,0.00,25.1,23.4,00.0,34.0,26.9,14.6,0000.0,0000.79,0000.48,0000.34
2022-11-06 05:40:00,,0814.9,5.00,0.00,25.1,23.4,00.0,34.0,26.9,14.6,0000.0,0000.81,0000.49,0000.35
2022-11-06 05:41:00,,0814.9,5.00,0.00,25.1,23.4,00.0,34.0,26.9,14.7,0000.0,0000.77,0000.48,0000.34
2022-11-06 05:42:00,,0814.9,5.00,0.00,25.1,23.4,00.0,34.0,26.9,14.7,0000.0,0000.80,0000.49,0000.34
2022-11-06 05:43:00,,0814.9,5.00,0.00,25.1,23.4,00.0,34.0,26.9,14.8,0000.0,0000.90,0000.51,0000.34
2022-11-06 05:44:00,,0815.0,5.00,0.00,25.0,23.4,00.0,33.9,26.8,14.8,0000.0,0000.89,0000.52,0000.34
2022-11-06 05:45:00,,0815.0,5.00,0.00,25.0,23.4,00.0,33.9,26.8,14.9,0000.0,0000.92,0000.53,0000.35
2022-11-06 05:46:00,,0815.0,5.00,0.00,25.0,23.5,00.0,33.9,26.8,14.9,0000.0,0000.91,0000.53,0000.36
2022-11-06 05:47:00,,0814.9,5.00,0.00,25.0,23.5,00.0,33.9,26.8,14.9,0000.0,0000.95,0000.54,0000.36
2022-11-06 05:48:00,,0815.0,5.00,0.00,25.0,23.5,00.0,33.9,26.9,14.9,0000.0,0000.96,0000.53,0000.36
2022-11-06 05:49:00,,0815.2,5.00,0.00,25.0,23.6,00.0,33.9,26.9,14.9,0000.0,0000.95,0000.52,0000.36
2022-11-06 05:50:00,,0815.2,5.01,0.00,25.0,23.5,00.0,33.9,26.8,14.6,0000.0,0000.97,0000.53,0000.35
2022-11-06 05:51:00,,0815.2,5.00,0.00,25.0,23.4,00.0,33.9,26.7,14.6,0000.0,0000.99,0000.54,0000.35
2022-11-06 05:52:00,,0815.2,5.00,0.00,24.9,23.3,00.0,33.9,26.7,14.6,0000.0,0001.08,0000.54,0000.36
2022-11-06 05:53:00,,0815.1,4.99,0.00,24.9,23.2,00.0,33.8,26.6,14.7,0000.0,0001.30,0000.52,0000.36
2022-11-06 05:54:00,,0815.4,4.99,0.00,24.8,23.1,00.0,33.8,26.6,14.7,0000.0,0001.25,0000.51,0000.37
2022-11-06 05:55:00,,0815.1,5.01,0.00,24.8,23.1,00.0,33.8,26.5,14.8,0000.0,0001.34,0000.55,0000.38
2022-11-06 05:56:00,,0815.1,5.00,0.00,24.7,23.0,00.0,33.8,26.5,14.9,0000.0,0002.41,0000.54,0000.38
2022-11-06 05:57:00,,0815.1,4.98,0.00,24.7,22.9,00.0,33.7,26.4,14.8,0000.0,0003.11,0000.53,0000.38
2022-11-06 05:58:00,,0815.1,5.00,0.00,24.7,22.9,00.0,33.7,26.4,14.7,0000.0,0003.07,0000.54,0000.38
2022-11-06 05:59:00,,0815.2,5.00,0.00,24.7,23.0,00.0,33.7,26.4,14.8,0000.0,0003.10,0000.56,0000.38
